Charlotte, NC

12:20 PM EST on February 12, 2016 (GMT -0500)
Charlotte-Douglas International

Weather History for KCLT - July, 2013

Change the Weather History Date:

Wednesday, July 17, 2013

  Actual Average Record
Temperature  
Mean Temperature 80 °F 79 °F  
Max Temperature 90 °F 89 °F 100 °F (1986)
Min Temperature 70 °F 68 °F 62 °F (1886)
Degree Days  
Heating Degree Days 0 0  
Month to date heating degree days 0 0  
Since 1 June heating degree days 0 3  
Since 1 July heating degree days 0 0  
Cooling Degree Days 15 14  
Month to date cooling degree days 227 231  
Year to date cooling degree days 743 705  
Since 1 June cooling degree days 574 542  
Growing Degree Days 30 (Base 50)    
Moisture  
Dew Point 72 °F    
Average Humidity 79    
Maximum Humidity 94    
Minimum Humidity 64    
Precipitation  
Precipitation 0.01 in 0.12 in 4.14 in (2004)
Month to date precipitation 5.75 1.89  
Year to date precipitation 31.81 22.59  
Snow  
Snow 0.00 in 0.00 in 0.00 in ()
Month to date snowfall 0.0 0.0  
Since 1 June snowfall 0.0 0.0  
Since 1 July snowfall 0.0 0.0  
Snow Depth 0.00 in    
Sea Level Pressure  
Sea Level Pressure 30.20 in    
Wind  
Wind Speed 4 mph (NNW)    
Max Wind Speed 29 mph    
Max Gust Speed 37 mph    
Visibility 10 miles    
Events Rain , Thunderstorm    
T = Trace of Precipitation, MM = Missing Value Source: NWS Daily Summary

Daily Weather History Graph

Daily Weather History Graph

Search for Another Location

Airport or City:

Trip Planner

Search our weather history database for the weather conditions in past years. The results will help you decide how hot, cold, wet, or windy it might be!

Date:

Astronomy

Jul. 17, 2013 Rise Set
Actual Time 6:22 AM EDT 8:37 PM EDT
Civil Twilight 5:53 AM EDT 9:06 PM EDT
Nautical Twilight 5:17 AM EDT 9:41 PM EDT
Astronomical Twilight 4:39 AM EDT 10:20 PM EDT
Moon 3:27 PM EDT (7/17) 1:23 AM EDT (7/17)
Length of Visible Light 15h 13m
Length of Day
14h 15m
Waxing Gibbous, 67% of the Moon is Illuminated
Jul 17
Waxing Gibbous
Jul 22
Full
Jul 29
Last Quarter
Aug 6
New
Aug 14
First Quarter

Hourly Weather History & Observations

Time (EDT) Temp. Heat Index Dew Point Humidity Pressure Visibility Wind Dir Wind Speed Gust Speed Precip Events Conditions
12:52 AM 77.0 °F - 72.0 °F 84% 30.22 in 10.0 mi Calm Calm - N/A   Mostly Cloudy
1:52 AM 75.0 °F - 73.0 °F 94% 30.22 in 10.0 mi Calm Calm - N/A   Scattered Clouds
2:52 AM 75.0 °F - 72.0 °F 90% 30.21 in 10.0 mi NNW 4.6 mph - N/A   Overcast
3:52 AM 73.9 °F - 72.0 °F 93% 30.21 in 10.0 mi NW 3.5 mph - N/A   Overcast
4:52 AM 73.0 °F - 72.0 °F 96% 30.22 in 10.0 mi Calm Calm - N/A   Overcast
5:52 AM 73.0 °F - 72.0 °F 96% 30.22 in 10.0 mi NW 3.5 mph - N/A   Overcast
6:52 AM 73.9 °F - 71.1 °F 91% 30.23 in 10.0 mi NNW 3.5 mph - N/A   Overcast
7:52 AM 75.0 °F - 71.1 °F 87% 30.24 in 10.0 mi NNW 3.5 mph - N/A   Overcast
8:52 AM 77.0 °F - 72.0 °F 84% 30.24 in 10.0 mi NNW 4.6 mph - N/A   Clear
9:52 AM 81.0 °F 85.8 °F 73.0 °F 77% 30.25 in 10.0 mi Calm Calm - N/A   Mostly Cloudy
10:52 AM 84.0 °F 91.2 °F 73.9 °F 72% 30.24 in 10.0 mi North 3.5 mph - N/A   Mostly Cloudy
11:52 AM 84.9 °F 93.3 °F 75.0 °F 72% 30.24 in 10.0 mi NNW 5.8 mph - N/A   Mostly Cloudy
12:52 PM 87.1 °F 96.3 °F 75.0 °F 67% 30.22 in 10.0 mi Calm Calm - N/A   Mostly Cloudy
1:52 PM 89.1 °F 99.1 °F 75.0 °F 63% 30.19 in 10.0 mi NW 5.8 mph - N/A   Scattered Clouds
2:52 PM 86.0 °F 96.0 °F 75.9 °F 72% 30.19 in 10.0 mi Variable 3.5 mph - N/A   Mostly Cloudy
3:39 PM 82.4 °F 90.9 °F 77.0 °F 84% 30.19 in 10.0 mi NNW 3.5 mph - 0.00 in Rain , Thunderstorm Light Thunderstorms and Rain
3:52 PM 82.9 °F 90.8 °F 75.9 °F 79% 30.15 in 10.0 mi North 4.6 mph - 0.00 in Thunderstorm Thunderstorm
4:31 PM 82.4 °F 89.5 °F 75.2 °F 79% 30.18 in 10.0 mi NE 9.2 mph - 0.00 in   Overcast
4:52 PM 73.9 °F - 69.1 °F 85% 30.19 in 10.0 mi NNE 16.1 mph 32.2 mph 0.00 in Rain Light Rain
5:17 PM 73.4 °F - 69.8 °F 88% 30.17 in 10.0 mi NNE 9.2 mph 17.3 mph 0.00 in Rain , Thunderstorm Thunderstorms and Rain
5:35 PM 73.4 °F - 69.8 °F 88% 30.17 in 9.0 mi Calm Calm - 0.01 in Rain Light Rain
5:52 PM 75.0 °F - 69.1 °F 82% 30.16 in 10.0 mi South 4.6 mph - 0.01 in Rain Light Rain
6:52 PM 72.0 °F - 69.1 °F 91% 30.19 in 10.0 mi NW 6.9 mph - 0.00 in   Overcast
7:52 PM 73.0 °F - 69.1 °F 87% 30.19 in 10.0 mi NW 3.5 mph - N/A   Overcast
8:52 PM 72.0 °F - 69.1 °F 91% 30.17 in 10.0 mi North 5.8 mph - N/A   Overcast
9:52 PM 71.1 °F - 69.1 °F 93% 30.17 in 10.0 mi NNW 4.6 mph - N/A   Overcast
10:52 PM 71.1 °F - 69.1 °F 93% 30.18 in 10.0 mi NNW 6.9 mph - N/A   Mostly Cloudy
11:52 PM 71.1 °F - 69.1 °F 93% 30.17 in 10.0 mi NW 3.5 mph - N/A   Overcast